Weather History for KGRB - May, 2013

Change the Weather History Date:

Saturday, May 25, 2013

  Actual Average Record
Temperature  
Mean Temperature 52 °F 58 °F  
Max Temperature 64 °F 69 °F 88 °F (1911)
Min Temperature 40 °F 47 °F 32 °F (1988)
Degree Days  
Heating Degree Days 13 8  
Month to date heating degree days 262 284  
Since 1 July heating degree days 7609 7821  
Cooling Degree Days 0 1  
Month to date cooling degree days 15 8  
Year to date cooling degree days 20 10  
Growing Degree Days 2 (Base 50)    
Moisture  
Dew Point 36 °F    
Average Humidity 64    
Maximum Humidity 93    
Minimum Humidity 34    
Precipitation  
Precipitation 0.00 in 0.11 in 1.54 in (1957)
Month to date precipitation 3.23 2.25  
Year to date precipitation 13.28 8.97  
Snow  
Snow 0.00 in 0.00 in 0.00 in ()
Month to date snowfall 0.0 0.2  
Since 1 July snowfall 74.2 51.4  
Snow Depth 0.00 in    
Sea Level Pressure  
Sea Level Pressure 30.38 in    
Wind  
Wind Speed 5 mph (ESE)    
Max Wind Speed 13 mph    
Max Gust Speed 15 mph    
Visibility 10 miles    
Events      
T = Trace of Precipitation, MM = Missing Value Source: NWS Daily Summary

Daily Weather History Graph

Daily Weather History Graph

Search for Another Location

Airport or City:

Trip Planner

Search our weather history database for the weather conditions in past years. The results will help you decide how hot, cold, wet, or windy it might be!

Date:

Astronomy

May. 25, 2013 Rise Set
Actual Time 5:15 AM CDT 8:24 PM CDT
Civil Twilight 4:40 AM CDT 8:59 PM CDT
Nautical Twilight 3:55 AM CDT 9:44 PM CDT
Astronomical Twilight 3:00 AM CDT 10:39 PM CDT
Moon 9:11 PM CDT (5/25) 5:42 AM CDT (5/25)
Length of Visible Light 16h 19m
Length of Day
15h 08m
Full, 100% of the Moon is Illuminated
May 25
Full
May 31
Last Quarter
Jun 8
New
Jun 16
First Quarter
Jun 23
Full

Hourly Weather History & Observations

Time (CDT) Temp. Windchill Dew Point Humidity Pressure Visibility Wind Dir Wind Speed Gust Speed Precip Events Conditions
12:53 AM 45.0 °F 42.6 °F 36.0 °F 71% 30.37 in 10.0 mi ESE 4.6 mph - N/A   Clear
1:53 AM 44.1 °F 41.5 °F 36.0 °F 73% 30.36 in 10.0 mi NE 4.6 mph - N/A   Clear
2:53 AM 44.1 °F - 34.0 °F 68% 30.37 in 10.0 mi Calm Calm - N/A   Clear
3:53 AM 42.1 °F - 39.0 °F 89% 30.38 in 10.0 mi Calm Calm - N/A   Clear
4:53 AM 41.0 °F - 37.9 °F 89% 30.38 in 10.0 mi Calm Calm - N/A   Clear
5:53 AM 41.0 °F - 39.0 °F 93% 30.40 in 10.0 mi Calm Calm - N/A   Clear
6:53 AM 46.9 °F - 39.0 °F 74% 30.43 in 10.0 mi Calm Calm - N/A   Clear
7:53 AM 51.1 °F - 34.0 °F 52% 30.45 in 10.0 mi ESE 5.8 mph - N/A   Clear
8:53 AM 55.0 °F - 34.0 °F 45% 30.44 in 10.0 mi ESE 8.1 mph - N/A   Clear
9:53 AM 55.9 °F - 35.1 °F 45% 30.43 in 10.0 mi ESE 8.1 mph - N/A   Clear
10:53 AM 57.9 °F - 36.0 °F 44% 30.42 in 10.0 mi ESE 9.2 mph - N/A   Clear
11:53 AM 59.0 °F - 35.1 °F 41% 30.41 in 10.0 mi SE 8.1 mph - N/A   Clear
12:53 PM 61.0 °F - 34.0 °F 36% 30.40 in 10.0 mi ESE 8.1 mph - N/A   Clear
1:53 PM 63.0 °F - 36.0 °F 37% 30.38 in 10.0 mi ENE 9.2 mph - N/A   Clear
2:53 PM 64.0 °F - 35.1 °F 34% 30.36 in 10.0 mi ESE 11.5 mph - N/A   Clear
3:53 PM 63.0 °F - 34.0 °F 34% 30.37 in 10.0 mi SE 6.9 mph - N/A   Clear
4:53 PM 63.0 °F - 35.1 °F 35% 30.36 in 10.0 mi East 10.4 mph - N/A   Clear
5:53 PM 61.0 °F - 34.0 °F 36% 30.36 in 10.0 mi ESE 9.2 mph - N/A   Clear
6:53 PM 59.0 °F - 33.1 °F 38% 30.34 in 10.0 mi East 9.2 mph - N/A   Clear
7:53 PM 57.0 °F - 37.0 °F 47% 30.34 in 10.0 mi East 4.6 mph - N/A   Clear
8:53 PM 52.0 °F - 35.1 °F 53% 30.34 in 10.0 mi East 5.8 mph - N/A   Clear
9:53 PM 50.0 °F - 37.9 °F 63% 30.35 in 10.0 mi Calm Calm - N/A   Clear
10:53 PM 46.9 °F - 41.0 °F 80% 30.34 in 10.0 mi Calm Calm - N/A   Clear
11:53 PM 45.0 °F - 42.1 °F 90% 30.34 in 10.0 mi Calm Calm - N/A   Clear